CZ-6A DEB

Satellite information

Favourite Embed

Satellite Type and Status

DEBRISIN ORBIT

Key statistics

Satellite CZ-6A DEB at a glance.

Uptime

438

Days in orbit

Revolutions

≈ 14.7

Per day

Orbit

LEO

Low Earth Orbit

Inclination

88.9

Latest

Satellite identification and parameters

Extended collection of information and parameters for CZ-6A DEB.

Object identification

Identified? True

Debris? True

Object name: CZ-6A DEB

International designator: 2024-140QP

Object number (NORAD): 61145

Object ID (CCSDS): 61145

Country: PEOPLES REPUBLIC OF CHINA (PRC)

Current information (Y/N): Y

RCS size: SMALL

Orbital parameters

Period: 98.125 minutes

Inclination: 88.9344 deg

SMA: 7047.146 km

Apoapsis: 719.415 km

Periapsis: 618.607 km

RAAN: 295.6278 deg

Eccentricy: 0.00715239

Argument of periapsis: 18.2544 deg

Mean anomaly: 342.1215 deg

Mean motion: 14.67516113 rev/day

Mean motion (dot): 0.00046454 rev/day2

B* drag term: 0.0078414433 1/REarth

Two-line elements (TLE)

Creation date: Oct. 18, 2025, 2:17 a.m.

Reference frame: TEME

Reference center: EARTH

Epoch: Oct. 17, 2025, 11:10 p.m. UTC

TLE line 0: 0 CZ-6A DEB

TLE line 1: 1 61145U 24140QP 25290.96530235 .00046454 00000-0 78414-2 0 9998

TLE line 2: 2 61145 88.9344 295.6278 0071524 18.2544 342.1215 14.67516113 61490

Live tracking on map

Real-time ground track for satellite CZ-6A DEB.

In-orbit conjunctions

A list of the most updated potential collisions computed for object CZ-6A DEB.

Target Orbit TCA Probability of collision Miss distance Type
THORAD AGENA D DEB LEO 2025-01-23 14:31:39 0.000308916 108.0 (m) DEBRIS
SL-8 R/B LEO 2024-12-23 16:14:18 0.00029629 62.0 (m) ROCKET BODY
NOAA 16 DEB SSO 2024-12-22 14:46:51 0.001003463 120.0 (m) DEBRIS
FENGYUN 1C DEB SSO 2024-11-09 03:46:23 0.0001094543 460.0 (m) DEBRIS
FENGYUN 1C DEB SSO 2024-11-03 05:32:35 0.0001522787 627.0 (m) DEBRIS

Associated space launch

18 Low Earth Orbit communication satellites with Ku, Q and V band payloads for the G60 constellation operated by Shanghai Spacecom Satellite Technology (SSST) with funding backed by the Shanghai local government. Initial constellation will consist of 1296 satellites by 2027 with long term plans to expand it to 12000 satellites.

CZ-6A DEB was lifted into orbit during the mission ‘Long March 6A | G60 Polar Group 01’, on board a Long March 6A space rocket.

The launch took place on Aug. 6, 2024, 6:42 a.m. from Launch Complex 9A.

For more information about the launch, click the button.

Launch to space Long March 6A | G60 Polar Group 01
Long March 6A | G60 Polar Group 01

Agency: N/A

Status: Launch Successful

Launch date: Aug. 6, 2024, 6:42 a.m. UTC

Rocket: Long March 6A

Launch pad: Launch Complex 9A

Location: Taiyuan Satellite Launch Center, People's Republic of China

...

Latest news about this satellite

News about space launch
Brightness of first Chinese broadband constellation satellites alarms astronomers

The first satellites of a Chinese broadband constellation are significantly brighter than those of Western systems, posing a new challenge for astronomers.

News about space launch
Chinese rocket stage breaks up into cloud of more than 700 pieces of space debris

HELSINKI — A Chinese Long March 6A rocket’s upper stage has fragmented into a cloud of over 700 pieces of space debris, adding to concerns about long-term orbital safety. China […]

News about space launch
China's Thousand Sails Megaconstellation Kicks Off with Dangerous Debris Field

China's Thousand Sails Megaconstellation Kicks Off with Dangerous Debris Field


Newsletter sign-up

Weekly statistics, charts and insights to help you stay on top of the space industry.